• In Uzbekistan
  • List of Countries
  • For 7 days
  • Water Temperature
  • Satellite Maps
  • Weather Map
  • Weather Widgets
  • user-avatar
    Login

    Hourly Weather Mikolajowice

    Today, 23 October, Tuesday

    Time Temperature Precipitation Wind Pressure Humidity
    00:00 +8°C° 0.2 mm 3 mps 750 mmHg 78%
    01:00 +9°C° 0 mm 3 mps 750 mmHg 80%
    02:00 +8°C° 0 mm 3 mps 749 mmHg 82%
    03:00 +7°C° 0 mm 4 mps 749 mmHg 84%
    04:00 +6°C° 0 mm 4 mps 749 mmHg 86%
    05:00 +7°C° 0 mm 3 mps 749 mmHg 87%
    06:00 +5°C° 0 mm 3 mps 748 mmHg 89%
    07:00 +4°C° 0 mm 3 mps 748 mmHg 90%
    08:00 +6°C° 0 mm 4 mps 747 mmHg 80%
    09:00 +7°C° 0 mm 5 mps 746 mmHg 69%
    10:00 +9°C° 0 mm 5 mps 745 mmHg 58%
    11:00 +9°C° 0 mm 6 mps 744 mmHg 57%
    12:00 +10°C° 0 mm 6 mps 743 mmHg 55%
    13:00 +10°C° 0 mm 6 mps 742 mmHg 53%
    14:00 +9°C° 0.3 mm 7 mps 741 mmHg 58%
    15:00 +9°C° 0.3 mm 7 mps 740 mmHg 62%
    16:00 +7°C° 0.3 mm 8 mps 739 mmHg 66%
    17:00 +7°C° 0.3 mm 8 mps 738 mmHg 69%
    18:00 +7°C° 0.3 mm 9 mps 737 mmHg 73%
    19:00 +7°C° 0.3 mm 9 mps 736 mmHg 77%
    20:00 +7°C° 0.6 mm 9 mps 735 mmHg 78%
    21:00 +8°C° 0.6 mm 9 mps 735 mmHg 80%
    22:00 +8°C° 0.6 mm 9 mps 734 mmHg 81%
    23:00 +9°C° 1.9 mm 8 mps 733 mmHg 83%

    Tomorrow, 24 October, Wednesday

    Time Temperature Precipitation Wind Pressure Humidity
    00:00 +9°C° 1.9 mm 7 mps 733 mmHg 84%
    01:00 +9°C° 1.9 mm 7 mps 732 mmHg 86%
    02:00 +8°C° 1.4 mm 7 mps 732 mmHg 84%
    03:00 +8°C° 1.4 mm 7 mps 731 mmHg 82%
    04:00 +6°C° 1.4 mm 7 mps 731 mmHg 79%
    05:00 +6°C° 0.5 mm 8 mps 731 mmHg 76%
    06:00 +5°C° 0.5 mm 9 mps 731 mmHg 74%
    07:00 +5°C° 0.5 mm 10 mps 732 mmHg 71%
    08:00 +5°C° 0.2 mm 10 mps 732 mmHg 65%
    09:00 +5°C° 0.2 mm 10 mps 733 mmHg 60%
    10:00 +4°C° 0.2 mm 11 mps 734 mmHg 54%
    11:00 +4°C° 0.1 mm 11 mps 734 mmHg 52%
    12:00 +5°C° 0.1 mm 10 mps 735 mmHg 49%
    13:00 +5°C° 0.1 mm 10 mps 735 mmHg 46%
    14:00 +5°C° 0 mm 10 mps 736 mmHg 47%
    15:00 +5°C° 0 mm 9 mps 736 mmHg 49%
    16:00 +5°C° 0 mm 8 mps 737 mmHg 50%
    17:00 +4°C° 0 mm 7 mps 738 mmHg 52%
    18:00 +4°C° 0 mm 7 mps 738 mmHg 54%
    19:00 +3°C° 0 mm 6 mps 739 mmHg 56%
    20:00 +3°C° 0 mm 6 mps 739 mmHg 58%
    21:00 +3°C° 0 mm 6 mps 740 mmHg 59%
    22:00 +2°C° 0 mm 6 mps 740 mmHg 61%
    23:00 +2°C° 0 mm 6 mps 741 mmHg 63%

    Day after tomorrow, 25 October, Thursday

    Time Temperature Precipitation Wind Pressure Humidity
    00:00 +2°C° 0 mm 6 mps 741 mmHg 64%
    01:00 +2°C° 0 mm 6 mps 741 mmHg 66%
    02:00 +1°C° 0 mm 6 mps 742 mmHg 70%
    03:00 +1°C° 0 mm 6 mps 742 mmHg 74%
    04:00 +1°C° 0 mm 5 mps 742 mmHg 78%
    05:00 +1°C° 0 mm 5 mps 741 mmHg 78%
    06:00 +2°C° 0 mm 5 mps 741 mmHg 77%
    07:00 +2°C° 0 mm 5 mps 741 mmHg 76%
    08:00 +2°C° 0.7 mm 5 mps 740 mmHg 78%
    09:00 +3°C° 0.7 mm 5 mps 740 mmHg 80%
    10:00 +5°C° 0.7 mm 5 mps 739 mmHg 82%
    11:00 +6°C° 1.1 mm 5 mps 738 mmHg 84%
    12:00 +7°C° 1.1 mm 6 mps 738 mmHg 86%
    13:00 +9°C° 1.1 mm 7 mps 737 mmHg 87%
    14:00 +9°C° 0.7 mm 7 mps 737 mmHg 87%
    15:00 +9°C° 0.7 mm 7 mps 737 mmHg 87%
    16:00 +10°C° 0.7 mm 8 mps 737 mmHg 86%
    17:00 +9°C° 0.5 mm 8 mps 737 mmHg 86%
    18:00 +9°C° 0.5 mm 8 mps 737 mmHg 85%
    19:00 +9°C° 0.5 mm 8 mps 737 mmHg 85%
    20:00 +9°C° 0.5 mm 7 mps 738 mmHg 84%
    21:00 +8°C° 0.5 mm 6 mps 738 mmHg 84%
    22:00 +8°C° 0.5 mm 6 mps 739 mmHg 84%
    23:00 +7°C° 0.1 mm 5 mps 739 mmHg 84%

    26 October, Friday

    Time Temperature Precipitation Wind Pressure Humidity
    00:00 +7°C° 0.1 mm 5 mps 739 mmHg 84%
    01:00 +6°C° 0.1 mm 5 mps 739 mmHg 84%
    02:00 +6°C° 0 mm 4 mps 740 mmHg 85%
    03:00 +6°C° 0 mm 4 mps 740 mmHg 86%
    04:00 +6°C° 0 mm 4 mps 740 mmHg 87%
    05:00 +5°C° 0 mm 4 mps 740 mmHg 88%
    06:00 +5°C° 0 mm 4 mps 741 mmHg 88%
    07:00 +5°C° 0 mm 3 mps 741 mmHg 89%
    08:00 +6°C° 0 mm 4 mps 741 mmHg 83%
    09:00 +8°C° 0 mm 4 mps 741 mmHg 77%
    10:00 +10°C° 0 mm 4 mps 741 mmHg 71%
    11:00 +10°C° 0 mm 4 mps 741 mmHg 71%
    12:00 +11°C° 0 mm 3 mps 741 mmHg 71%
    13:00 +11°C° 0 mm 3 mps 740 mmHg 71%
    14:00 +11°C° 0 mm 3 mps 740 mmHg 74%
    15:00 +10°C° 0 mm 2 mps 740 mmHg 77%
    16:00 +11°C° 0 mm 1 mps 740 mmHg 79%
    17:00 +9°C° 0 mm 2 mps 740 mmHg 82%
    18:00 +9°C° 0 mm 2 mps 740 mmHg 84%
    19:00 +8°C° 0 mm 2 mps 740 mmHg 86%
    20:00 +8°C° 0 mm 2 mps 739 mmHg 86%
    21:00 +8°C° 0 mm 3 mps 739 mmHg 86%
    22:00 +8°C° 0 mm 3 mps 739 mmHg 86%
    23:00 +7°C° 0 mm 3 mps 738 mmHg 87%

    27 October, Saturday

    Time Temperature Precipitation Wind Pressure Humidity
    00:00 +7°C° 0 mm 3 mps 738 mmHg 87%
    01:00 +7°C° 0 mm 3 mps 738 mmHg 88%
    02:00 +7°C° 0 mm 3 mps 738 mmHg 89%
    03:00 +7°C° 0 mm 3 mps 737 mmHg 90%
    04:00 +8°C° 0 mm 3 mps 737 mmHg 90%
    05:00 +8°C° 0 mm 3 mps 737 mmHg 90%
    06:00 +8°C° 0 mm 3 mps 737 mmHg 90%
    07:00 +8°C° 0 mm 2 mps 737 mmHg 90%
    08:00 +9°C° 0 mm 3 mps 737 mmHg 83%
    09:00 +11°C° 0 mm 3 mps 737 mmHg 76%
    10:00 +12°C° 0 mm 3 mps 737 mmHg 69%
    11:00 +13°C° 0 mm 3 mps 737 mmHg 67%
    12:00 +13°C° 0 mm 3 mps 737 mmHg 65%
    13:00 +13°C° 0 mm 3 mps 737 mmHg 62%
    14:00 +12°C° 0 mm 3 mps 737 mmHg 67%
    15:00 +11°C° 0 mm 3 mps 737 mmHg 71%
    16:00 +10°C° 0 mm 2 mps 738 mmHg 75%
    17:00 +10°C° 0.6 mm 2 mps 738 mmHg 79%
    18:00 +10°C° 0.6 mm 1 mps 738 mmHg 83%
    19:00 +9°C° 0.6 mm 1 mps 738 mmHg 86%
    20:00 +9°C° 0.6 mm 1 mps 738 mmHg 87%
    21:00 +9°C° 0.6 mm 1 mps 739 mmHg 88%
    22:00 +9°C° 0.6 mm 1 mps 739 mmHg 89%
    23:00 +8°C° 0.6 mm 1 mps 739 mmHg 88%

    28 October, Sunday

    Time Temperature Precipitation Wind Pressure Humidity
    00:00 +7°C° 0.6 mm 2 mps 738 mmHg 88%
    01:00 +7°C° 0.6 mm 2 mps 738 mmHg 88%
    02:00 +7°C° 1 mm 3 mps 738 mmHg 89%
    03:00 +7°C° 1 mm 3 mps 738 mmHg 89%
    04:00 +5°C° 1 mm 4 mps 737 mmHg 89%
    05:00 +5°C° 1.2 mm 4 mps 737 mmHg 90%
    06:00 +5°C° 1.2 mm 4 mps 737 mmHg 90%
    07:00 +5°C° 1.2 mm 4 mps 737 mmHg 90%
    08:00 +5°C° 0.5 mm 4 mps 737 mmHg 90%
    09:00 +5°C° 0.5 mm 5 mps 737 mmHg 90%
    10:00 +5°C° 0.5 mm 5 mps 736 mmHg 90%
    11:00 +6°C° 0.5 mm 4 mps 736 mmHg 90%
    12:00 +6°C° 0.5 mm 4 mps 736 mmHg 90%
    13:00 +6°C° 0.5 mm 4 mps 736 mmHg 91%
    14:00 +6°C° 0.3 mm 4 mps 736 mmHg 92%
    15:00 +7°C° 0.3 mm 4 mps 735 mmHg 93%
    16:00 +8°C° 0.3 mm 3 mps 735 mmHg 94%
    17:00 +8°C° 0.2 mm 3 mps 735 mmHg 94%
    18:00 +8°C° 0.2 mm 3 mps 734 mmHg 94%
    19:00 +8°C° 0.2 mm 3 mps 734 mmHg 95%
    20:00 +9°C° 0.1 mm 3 mps 734 mmHg 94%
    21:00 +10°C° 0.1 mm 3 mps 733 mmHg 93%
    22:00 +10°C° 0.1 mm 3 mps 733 mmHg 93%
    23:00 +11°C° 0.1 mm 3 mps 732 mmHg 91%

    29 October, Monday

    Time Temperature Precipitation Wind Pressure Humidity
    00:00 +11°C° 0.1 mm 3 mps 732 mmHg 89%
    01:00 +11°C° 0.1 mm 3 mps 731 mmHg 86%
    02:00 +12°C° 0 mm 4 mps 731 mmHg 84%
    03:00 +12°C° 0 mm 4 mps 731 mmHg 82%
    04:00 +12°C° 0 mm 5 mps 730 mmHg 80%
    05:00 +12°C° 0 mm 5 mps 730 mmHg 79%
    06:00 +12°C° 0 mm 5 mps 730 mmHg 78%
    07:00 +12°C° 0 mm 5 mps 730 mmHg 77%
    08:00 +13°C° 0 mm 5 mps 730 mmHg 74%
    09:00 +15°C° 0 mm 6 mps 730 mmHg 70%
    10:00 +16°C° 0 mm 6 mps 729 mmHg 66%
    11:00 +16°C° 0.3 mm 5 mps 729 mmHg 68%
    12:00 +16°C° 0.3 mm 5 mps 729 mmHg 71%
    13:00 +16°C° 0.3 mm 5 mps 729 mmHg 73%
    14:00 +15°C° 0.2 mm 5 mps 729 mmHg 76%
    15:00 +14°C° 0.2 mm 5 mps 729 mmHg 79%
    16:00 +14°C° 0.2 mm 5 mps 729 mmHg 82%
    17:00 +13°C° 0 mm 4 mps 729 mmHg 84%
    18:00 +13°C° 0 mm 4 mps 728 mmHg 85%
    19:00 +13°C° 0 mm 4 mps 728 mmHg 87%
    20:00 +13°C° 0 mm 4 mps 728 mmHg 87%
    21:00 +13°C° 0 mm 4 mps 729 mmHg 87%
    22:00 +13°C° 0 mm 4 mps 729 mmHg 87%
    23:00 +12°C° 0 mm 4 mps 729 mmHg 87%
    Show more